| time (UTC) | temp F | wind direction | speed knots | gust knots | rain 1hr in | rain 24hr in | rain mn in | humidity % | barometer mb |
| 20260503204557 | 58 | 338 | 1.7 | 4.3 | 0.00 | 0.00 | 0.00 | 53 | 1021.2 |
| 20260503203054 | 58 | 17 | 1.7 | 5.2 | 0.00 | 0.00 | 0.00 | 54 | 1021.0 |
| 20260503201552 | 58 | 342 | 1.7 | 3.5 | 0.00 | 0.00 | 0.00 | 54 | 1021.0 |
| 20260503200052 | 59 | 342 | 1.7 | 4.3 | 0.00 | 0.00 | 0.00 | 54 | 1020.9 |
| 20260503194553 | 59 | 336 | 1.7 | 4.3 | 0.00 | 0.00 | 0.00 | 54 | 1021.0 |
| 20260503193107 | 59 | 309 | 2.6 | 4.3 | 0.00 | 0.00 | 0.00 | 54 | 1020.8 |
| 20260503191553 | 59 | 340 | 1.7 | 3.5 | 0.00 | 0.00 | 0.00 | 54 | 1020.6 |
| 20260503190107 | 59 | 311 | 1.7 | 4.3 | 0.00 | 0.00 | 0.00 | 54 | 1020.5 |
| 20260503184552 | 60 | 336 | 2.6 | 4.3 | 0.00 | 0.00 | 0.00 | 50 | 1020.5 |
| 20260503183102 | 61 | 360 | 3.5 | 5.2 | 0.00 | 0.00 | 0.00 | 50 | 1020.4 |
| 20260503181552 | 62 | 343 | 2.6 | 5.2 | 0.00 | 0.00 | 0.00 | 49 | 1020.4 |
| 20260503180058 | 62 | 329 | 2.6 | 5.2 | 0.00 | 0.00 | 0.00 | 49 | 1020.2 |
| 20260503174553 | 63 | 326 | 2.6 | 4.3 | 0.00 | 0.00 | 0.00 | 49 | 1020.2 |
| 20260503173110 | 64 | 355 | 1.7 | 3.5 | 0.00 | 0.00 | 0.00 | 48 | 1020.2 |
| 20260503171555 | 65 | 347 | 1.7 | 3.5 | 0.00 | 0.00 | 0.00 | 46 | 1020.3 |
| 20260503140104 | 71 | 94 | 3.5 | 10.4 | 0.00 | 0.00 | 0.00 | 40 | 1021.2 |
| 20260503081601 | 67 | 0 | 0.9 | 4.3 | 0.00 | 0.00 | 0.00 | 37 | 1022.6 |
| 20260503071605 | 62 | 0 | 0.0 | 2.6 | 0.00 | 0.00 | 0.00 | 51 | 1022.7 |
| 20260503054549 | 55 | 0 | 0.0 | 0.9 | 0.00 | 0.00 | 0.00 | 58 | 1022.8 |
| 20260503053050 | 55 | 0 | 0.0 | 0.0 | 0.00 | 0.00 | 0.00 | 59 | 1022.8 |
| 20260503051558 | 54 | 0 | 0.0 | 1.7 | 0.00 | 0.00 | 0.00 | 56 | 1022.7 |
| 20260503050053 | 54 | 0 | 0.0 | 0.0 | 0.00 | 0.00 | 0.00 | 58 | 1022.7 |
| 20260503044555 | 53 | 0 | 0.0 | 3.5 | 0.00 | 0.00 | 0.00 | 55 | 1022.7 |
| 20260503043056 | 53 | 332 | 2.6 | 3.5 | 0.00 | 0.00 | 0.00 | 57 | 1022.8 |
| 20260503041557 | 52 | 0 | 0.0 | 2.6 | 0.00 | 0.00 | 0.00 | 54 | 1022.7 |
| 20260503040056 | 52 | 0 | 0.9 | 1.7 | 0.00 | 0.00 | 0.00 | 55 | 1022.8 |
| 20260503034555 | 53 | 13 | 0.0 | 2.6 | 0.00 | 0.00 | 0.00 | 54 | 1022.7 |
| 20260503033100 | 53 | 334 | 1.7 | 3.5 | 0.00 | 0.00 | 0.00 | 54 | 1022.7 |
| 20260503031552 | 53 | 332 | 2.6 | 3.5 | 0.00 | 0.00 | 0.00 | 53 | 1022.8 |
| 20260503030053 | 53 | 0 | 0.0 | 0.9 | 0.00 | 0.00 | 0.00 | 52 | 1022.9 |
| 20260503024601 | 53 | 0 | 0.9 | 2.6 | 0.00 | 0.00 | 0.00 | 52 | 1022.8 |
| 20260503023052 | 53 | 0 | 0.0 | 0.9 | 0.00 | 0.00 | 0.00 | 52 | 1022.9 |
| 20260503021557 | 53 | 0 | 0.0 | 1.7 | 0.00 | 0.00 | 0.00 | 51 | 1022.8 |
| 20260503020056 | 53 | 0 | 0.0 | 0.9 | 0.00 | 0.00 | 0.00 | 51 | 1023.0 |
| 20260503014621 | 54 | 340 | 0.0 | 2.6 | 0.00 | 0.00 | 0.00 | 51 | 1023.0 |
| 20260503013053 | 54 | 342 | 1.7 | 6.1 | 0.00 | 0.00 | 0.00 | 50 | 1023.1 |
| 20260503011600 | 53 | 325 | 1.7 | 4.3 | 0.00 | 0.00 | 0.00 | 51 | 1023.2 |
| 20260503010057 | 53 | 346 | 1.7 | 3.5 | 0.00 | 0.00 | 0.00 | 52 | 1023.4 |
| 20260503004600 | 54 | 0 | 0.0 | 1.7 | 0.00 | 0.00 | 0.00 | 52 | 1023.4 |
| 20260503003050 | 54 | 355 | 1.7 | 3.5 | 0.00 | 0.00 | 0.00 | 52 | 1023.5 |
| 20260503001608 | 53 | 0 | 0.0 | 2.6 | 0.00 | 0.00 | 0.00 | 53 | 1023.6 |
| 20260503000111 | 54 | 0 | 0.0 | 1.7 | 0.00 | 0.00 | 0.00 | 55 | 1023.7 |
| 20260502234556 | 54 | 0 | 0.0 | 0.9 | 0.00 | 0.00 | 0.00 | 55 | 1023.8 |
| 20260502233054 | 54 | 0 | 1.7 | 4.3 | 0.00 | 0.00 | 0.00 | 54 | 1023.8 |
| 20260502231554 | 55 | 0 | 0.0 | 3.5 | 0.00 | 0.00 | 0.00 | 55 | 1024.0 |
| 20260502230052 | 55 | 5 | 1.7 | 3.5 | 0.00 | 0.00 | 0.00 | 56 | 1024.1 |
| 20260502224609 | 55 | 0 | 0.0 | 3.5 | 0.00 | 0.00 | 0.00 | 53 | 1024.2 |
| 20260502223055 | 55 | 336 | 0.0 | 2.6 | 0.00 | 0.00 | 0.00 | 56 | 1024.2 |
| 20260502221554 | 55 | 0 | 0.0 | 1.7 | 0.00 | 0.00 | 0.00 | 57 | 1024.3 |
| 20260502220052 | 56 | 23 | 0.0 | 4.3 | 0.00 | 0.00 | 0.00 | 57 | 1024.2 |
| 20260502214554 | 55 | 343 | 2.6 | 4.3 | 0.00 | 0.00 | 0.00 | 57 | 1024.3 |
| 20260502213108 | 54 | 5 | 0.0 | 1.7 | 0.00 | 0.00 | 0.00 | 59 | 1024.4 |
| 20260502211608 | 55 | 0 | 0.0 | 3.5 | 0.00 | 0.00 | 0.00 | 59 | 1024.4 |
| 20260502210056 | 55 | 355 | 0.9 | 1.7 | 0.00 | 0.00 | 0.00 | 59 | 1024.4 |